Regional Weather Roundup
Issued by NWS

Home | Current Version | Previous Version | Graphics & Text | Print | Product List | Glossary On
Versions: 1 2 3 4 5 6 7 8 9 10 11 12 13 14 15 16 17 18 19 20 21 22 23 24 25 26 27 28
574
ASUS45 KSLC 212110
RWRUT

UTAH REGIONAL WEATHER ROUNDUP
NATIONAL WEATHER SERVICE SALT LAKE CITY UT
300 PM MDT THU MAY 21 2015

UTZ001>011-023>025-212200-

NORTHERN UTAH

CITY           SKY/WX    TMP DP  RH WIND       PRES   REMARKS
BRIGHAM CITY   MOSUNNY   70  40  34 W6        29.88F
HILL AFB       TSTM      63  37  39 NE15      29.90F
LOGAN          SUNNY     68  47  46 NW9       29.88F
OGDEN          PTSUNNY   68  45  43 NW10      29.88F
PROVO AIRPORT  PTSUNNY   66  39  37 SE17G29   29.94R
SALT LAKE CITY LGT RAIN  64  41  42 NE13      29.89F
VERNAL         PTSUNNY   66  38  35 S5        29.96F
WENDOVER       PTSUNNY   68  43  40 S5        29.89F
HEBER CITY     CLOUDY    54  41  62 CALM      30.01F
WEST JORDAN    SUNNY     63  43  48 NE6       29.93S

$$

UTZ012>022-026-027-212200-

SOUTHERN/CENTRAL UTAH

CITY           SKY/WX    TMP DP  RH WIND       PRES   REMARKS
BLANDING       MOSUNNY   71  30  22 S16G22    30.04F
BRYCE CANYON   CLOUDY    56  26  31 S16G23    30.05F
CEDAR CITY     CLOUDY    62  31  31 VRB3      29.94F
DELTA          CLOUDY    68  26  20 S10       29.91F
HANKSVILLE     CLOUDY    73  28  19 E3        29.91F
MILFORD        CLOUDY    65  29  25 SW20      29.93F
MOAB/CYNLANDS  SUNNY     74  30  19 N12       29.89F
PRICE          PTSUNNY   66  29  24 S5        29.96F
ST GEORGE      CLOUDY    75  30  19 CALM      29.85F
KANAB          CLOUDY    68  28  22 SW10      29.95F

$$

REGIONAL REPORTS     COLORADO/ARIZONA

CITY           SKY/WX    TMP DP  RH WIND       PRES   REMARKS
CRAIG, CO      PTSUNNY   65  39  38 E15       30.03F
GRAND JUNCTION CLOUDY    70  37  29 SE22G30   29.92F
RIFLE          CLOUDY    69  32  25 CALM      29.96F
MONTROSE       CLOUDY    68  31  25 SW7       30.00F
CORTEZ         MOSUNNY   70  36  28 MISG      29.98F
PAGE, AZ       NOT AVBL
GRAND CANYON   CLOUDY    64  24  21 S10G23    30.00F
KINGMAN        PTSUNNY   76  21  12 SW8       29.87F
FLAGSTAFF      MOSUNNY   59  29  31 SW18G24   30.02F

$$

REGIONAL REPORTS    NEVADA/IDAHO/WYOMING

CITY           SKY/WX    TMP DP  RH WIND       PRES   REMARKS
LAS VEGAS, NV  PTSUNNY   80  29  15 SE14G20   29.76F
ELY            LGT RAIN  51  36  56 SW13      29.98R
ELKO           CLOUDY    56  41  57 SW18G26   29.91R
POCATELLO, ID  PTSUNNY   66  39  37 VRB3      29.93F
BURLEY         PTSUNNY   64  45  49 E7        29.89F
EVANSTON, WY   LGT RAIN  47  37  68 W14       30.05F
ROCK SPRINGS   TSTM      53  35  50 S32G41    30.04F
KEMMERER       PTSUNNY   54  37  54 E9        30.07F

$$



USA.gov is the U.S. government's official web portal to all federal, state and local government web resources and services.